This is the latest recevied weather packets stored in our database for station/object IW3HBX-13. If no packets are shown the sender has not sent any weather packets the latest 10 day(s).
| Time | Temp. | Humidity | Pressure | Rain* | Wind** | Luminosity | Snow |
|---|---|---|---|---|---|---|---|
| 1777825087 | 23.33° C | 46% | 1016.9 hPa | 0 mm | - | 250 W/m² | - |
| 1777824730 | 23.33° C | 46% | 1016.9 hPa | 0 mm | - | 219 W/m² | - |
| 1777824368 | 23.33° C | 47% | 1016.9 hPa | 0 mm | - | 206 W/m² | - |
| 1777823647 | 22.78° C | 44% | 1017 hPa | 0 mm | - | 209 W/m² | - |
| 1777823287 | 22.78° C | 44% | 1017 hPa | 0 mm | - | 193 W/m² | - |
| 1777822927 | 22.78° C | 46% | 1017.1 hPa | 0 mm | - | 186 W/m² | - |
| 1777822567 | 23.33° C | 43% | 1017.1 hPa | 0 mm | - | 184 W/m² | - |
| 1777822207 | 23.33° C | 44% | 1017.2 hPa | 0 mm | - | 176 W/m² | - |
| 1777821847 | 23.33° C | 44% | 1017.3 hPa | 0 mm | - | 187 W/m² | - |
| 1777821488 | 23.33° C | 43% | 1017.3 hPa | 0 mm | - | 181 W/m² | - |
| 1777821131 | 23.89° C | 43% | 1017.3 hPa | 0 mm | - | 187 W/m² | - |
| 1777820768 | 24.44° C | 43% | 1017.3 hPa | 0 mm | - | 238 W/m² | - |
| 1777820049 | 23.89° C | 42% | 1017.3 hPa | 0 mm | - | 342 W/m² | - |
| 1777819687 | 24.44° C | 41% | 1017.4 hPa | 0 mm | - | 325 W/m² | - |
| 1777819327 | 24.44° C | 41% | 1017.3 hPa | 0 mm | - | 300 W/m² | - |
| 1777818968 | 24.44° C | 40% | 1017.4 hPa | 0 mm | - | 426 W/m² | - |
| 1777818608 | 25° C | 40% | 1017.4 hPa | 0 mm | - | 504 W/m² | - |
| 1777818250 | 25° C | 42% | 1017.6 hPa | 0 mm | - | 527 W/m² | - |
| 1777817890 | 24.44° C | 41% | 1017.7 hPa | 0 mm | - | 559 W/m² | - |
| 1777817527 | 24.44° C | 41% | 1017.6 hPa | 0 mm | - | 463 W/m² | - |
| 1777817168 | 24.44° C | 42% | 1017.6 hPa | 0 mm | - | 379 W/m² | - |
| 1777816448 | 24.44° C | 43% | 1017.7 hPa | 0 mm | - | 490 W/m² | - |
| 1777816088 | 24.44° C | 42% | 1017.8 hPa | 0 mm | - | 553 W/m² | - |
| 1777815727 | 24.44° C | 43% | 1017.8 hPa | 0 mm | - | 520 W/m² | - |
| 1777815369 | 24.44° C | 43% | 1017.8 hPa | 0 mm | - | 464 W/m² | - |
* Rain latest hour (hover to see other rain measurements)
** Current wind speed in m/s (hover to see current wind gust speed)